Location: Presov
(49.0000°N, 21.2500°E)
Time: 07:09:01
(UTC+02:00)

Transit 2A Rocket - Pass Details

Date: 22 April 2021
Orbit: 594 x 909 km, 66.7° (Epoch: 07 May)

Event Time Altitude Azimuth Distance (km) Brightness Sun altitude
Rises 21:43:03 0° 329° (NNW) 2,853 9.5 -18.0°
Reaches altitude 10° 21:45:58 10° 350° (N) 1,969 8.0 -18.3°
Maximum altitude 21:48:54 17° 32° (NNE) 1,578 6.8 -18.6°
Enters shadow 21:51:37 11° 71° (ENE) 1,959 6.9 -18.9°
Drops below altitude 10° 21:51:56 10° 74° (ENE) 2,039 - -19.0°
Sets 21:55:01 0° 94° (E) 3,003 - -19.3°
